Time,TemperatureF,DewpointF,PressureIn,WindDirection,WindDirectionDegrees,WindSpeedMPH,WindSpeedGustMPH,Humidity,HourlyPrecipIn,Conditions,Clouds,dailyrainin,SoftwareType,DateUTC
2013-09-25 00:00:00,49.9,43.6,29.99,NNW,327,2.0,2.0,79,0.00,,,0.00,Wunderground v.1.15,2013-09-25 04:00:00,
2013-09-25 00:05:00,49.8,43.5,29.99,WNW,284,1.0,2.0,79,0.00,,,0.00,Wunderground v.1.15,2013-09-25 04:05:00,
2013-09-25 00:10:00,49.7,43.5,29.99,WNW,298,1.0,4.0,79,0.00,,,0.00,Wunderground v.1.15,2013-09-25 04:10:00,
2013-09-25 00:15:00,49.6,43.4,29.99,WNW,298,2.0,4.0,79,0.00,,,0.00,Wunderground v.1.15,2013-09-25 04:15:00,
2013-09-25 00:20:00,49.6,43.4,29.99,NW,306,3.0,3.0,79,0.00,,,0.00,Wunderground v.1.15,2013-09-25 04:20:00,
2013-09-25 00:25:00,49.6,43.4,29.99,WNW,296,2.0,3.0,79,0.00,,,0.00,Wunderground v.1.15,2013-09-25 04:25:00,
2013-09-25 00:30:00,49.6,43.4,29.99,NW,315,2.0,5.0,79,0.00,,,0.00,Wunderground v.1.15,2013-09-25 04:30:00,
2013-09-25 00:35:00,49.5,43.3,29.99,WNW,289,2.0,5.0,79,0.00,,,0.00,Wunderground v.1.15,2013-09-25 04:35:00,
2013-09-25 00:40:00,49.4,43.2,29.99,WNW,303,2.0,2.0,79,0.00,,,0.00,Wunderground v.1.15,2013-09-25 04:40:00,
2013-09-25 00:45:00,49.2,43.3,29.99,WNW,303,1.0,2.0,80,0.00,,,0.00,Wunderground v.1.15,2013-09-25 04:45:00,
2013-09-25 00:50:00,49.0,43.1,29.99,NW,306,0.0,2.0,80,0.00,,,0.00,Wunderground v.1.15,2013-09-25 04:50:00,
2013-09-25 00:55:00,48.9,43.0,29.99,NW,306,1.0,2.0,80,0.00,,,0.00,Wunderground v.1.15,2013-09-25 04:55:00,
2013-09-25 01:00:00,48.8,42.9,29.99,NW,305,1.0,1.0,80,0.00,,,0.00,Wunderground v.1.15,2013-09-25 05:00:00,
2013-09-25 01:05:00,48.7,43.1,29.99,NW,305,0.0,1.0,81,0.00,,,0.00,Wunderground v.1.15,2013-09-25 05:05:00,
2013-09-25 01:10:00,48.6,43.0,29.99,NW,306,0.0,1.0,81,0.00,,,0.00,Wunderground v.1.15,2013-09-25 05:10:00,
2013-09-25 01:15:00,48.5,42.9,29.99,NW,305,0.0,1.0,81,0.00,,,0.00,Wunderground v.1.15,2013-09-25 05:15:00,
2013-09-25 01:20:00,48.3,43.1,29.99,NW,305,0.0,1.0,82,0.00,,,0.00,Wunderground v.1.15,2013-09-25 05:20:00,
2013-09-25 01:25:00,48.1,42.9,29.99,NW,305,0.0,1.0,82,0.00,,,0.00,Wunderground v.1.15,2013-09-25 05:25:00,
2013-09-25 01:30:00,47.9,43.0,29.99,NW,305,0.0,1.0,83,0.00,,,0.00,Wunderground v.1.15,2013-09-25 05:30:00,
2013-09-25 01:35:00,47.9,42.7,29.99,NW,305,0.0,1.0,82,0.00,,,0.00,Wunderground v.1.15,2013-09-25 05:35:00,
2013-09-25 01:40:00,47.9,43.0,29.99,NW,305,0.0,1.0,83,0.00,,,0.00,Wunderground v.1.15,2013-09-25 05:40:00,
2013-09-25 01:45:00,47.8,42.9,29.99,NW,305,0.0,1.0,83,0.00,,,0.00,Wunderground v.1.15,2013-09-25 05:45:00,
2013-09-25 01:50:00,47.8,42.9,29.99,NW,305,0.0,1.0,83,0.00,,,0.00,Wunderground v.1.15,2013-09-25 05:50:00,
2013-09-25 01:55:00,47.7,42.8,29.99,NW,305,0.0,1.0,83,0.00,,,0.00,Wunderground v.1.15,2013-09-25 05:55:00,
2013-09-25 02:00:00,47.6,42.7,29.99,NW,305,0.0,1.0,83,0.00,,,0.00,Wunderground v.1.15,2013-09-25 06:00:00,
2013-09-25 02:10:00,47.0,42.7,29.99,NW,305,0.0,1.0,85,0.00,,,0.00,Wunderground v.1.15,2013-09-25 06:10:00,
2013-09-25 02:15:00,46.9,42.6,29.99,NW,305,0.0,1.0,85,0.00,,,0.00,Wunderground v.1.15,2013-09-25 06:15:00,
2013-09-25 02:20:00,46.8,42.5,29.98,NW,305,0.0,1.0,85,0.00,,,0.00,Wunderground v.1.15,2013-09-25 06:20:00,
2013-09-25 02:25:00,46.8,42.5,29.98,NW,305,0.0,1.0,85,0.00,,,0.00,Wunderground v.1.15,2013-09-25 06:25:00,
2013-09-25 02:30:00,46.8,42.5,29.98,NW,305,0.0,1.0,85,0.00,,,0.00,Wunderground v.1.15,2013-09-25 06:30:00,
2013-09-25 02:35:00,46.8,42.5,29.98,NW,305,0.0,1.0,85,0.00,,,0.00,Wunderground v.1.15,2013-09-25 06:35:00,
2013-09-25 02:40:00,47.0,42.7,29.98,NW,305,0.0,1.0,85,0.00,,,0.00,Wunderground v.1.15,2013-09-25 06:40:00,
2013-09-25 02:45:00,47.0,42.7,29.98,NW,305,0.0,1.0,85,0.00,,,0.00,Wunderground v.1.15,2013-09-25 06:45:00,
2013-09-25 02:50:00,47.0,42.7,29.98,NW,305,0.0,1.0,85,0.00,,,0.00,Wunderground v.1.15,2013-09-25 06:50:00,
2013-09-25 02:55:00,47.0,42.7,29.98,NW,305,0.0,1.0,85,0.00,,,0.00,Wunderground v.1.15,2013-09-25 06:55:00,
2013-09-25 03:00:00,46.8,42.5,29.98,NW,305,0.0,1.0,85,0.00,,,0.00,Wunderground v.1.15,2013-09-25 07:00:00,
2013-09-25 03:05:00,46.7,42.4,29.98,NW,306,0.0,1.0,85,0.00,,,0.00,Wunderground v.1.15,2013-09-25 07:05:00,
2013-09-25 03:10:00,46.7,42.7,29.98,NW,306,0.0,1.0,86,0.00,,,0.00,Wunderground v.1.15,2013-09-25 07:10:00,
2013-09-25 03:15:00,46.7,42.7,29.98,NW,306,0.0,1.0,86,0.00,,,0.00,Wunderground v.1.15,2013-09-25 07:15:00,
2013-09-25 03:20:00,46.6,42.6,29.98,NW,306,0.0,1.0,86,0.00,,,0.00,Wunderground v.1.15,2013-09-25 07:20:00,
2013-09-25 03:25:00,46.6,42.9,29.98,WNW,302,0.0,1.0,87,0.00,,,0.00,Wunderground v.1.15,2013-09-25 07:25:00,
2013-09-25 03:35:00,46.5,42.8,29.98,WNW,302,0.0,1.0,87,0.00,,,0.00,Wunderground v.1.15,2013-09-25 07:35:00,
2013-09-25 03:40:00,46.4,42.7,29.98,WNW,302,0.0,1.0,87,0.00,,,0.00,Wunderground v.1.15,2013-09-25 07:40:00,
2013-09-25 03:45:00,46.3,42.6,29.98,WNW,302,0.0,1.0,87,0.00,,,0.00,Wunderground v.1.15,2013-09-25 07:45:00,
2013-09-25 03:50:00,46.1,42.4,29.98,WNW,302,0.0,1.0,87,0.00,,,0.00,Wunderground v.1.15,2013-09-25 07:50:00,
2013-09-25 03:55:00,45.9,42.2,29.98,WNW,302,0.0,1.0,87,0.00,,,0.00,Wunderground v.1.15,2013-09-25 07:55:00,
2013-09-25 04:00:00,45.7,42.3,29.98,WNW,302,0.0,1.0,88,0.00,,,0.00,Wunderground v.1.15,2013-09-25 08:00:00,
2013-09-25 04:05:00,45.7,42.6,29.98,WNW,302,0.0,1.0,89,0.00,,,0.00,Wunderground v.1.15,2013-09-25 08:05:00,
2013-09-25 04:10:00,45.8,43.0,29.97,WNW,302,0.0,0.0,90,0.00,,,0.00,Wunderground v.1.15,2013-09-25 08:10:00,
2013-09-25 04:20:00,45.7,42.9,29.97,WNW,302,0.0,0.0,90,0.00,,,0.00,Wunderground v.1.15,2013-09-25 08:20:00,
2013-09-25 04:25:00,45.6,42.8,29.97,WNW,302,0.0,0.0,90,0.00,,,0.00,Wunderground v.1.15,2013-09-25 08:25:00,
2013-09-25 04:30:00,45.4,42.6,29.97,WNW,302,0.0,0.0,90,0.00,,,0.00,Wunderground v.1.15,2013-09-25 08:30:00,
2013-09-25 04:34:00,45.3,42.5,29.97,WNW,302,0.0,0.0,90,0.00,,,0.00,Wunderground v.1.15,2013-09-25 08:34:00,
2013-09-25 04:39:00,45.1,42.3,29.97,WNW,302,0.0,0.0,90,0.00,,,0.00,Wunderground v.1.15,2013-09-25 08:39:00,
2013-09-25 04:44:00,44.9,42.4,29.96,WNW,302,0.0,0.0,91,0.00,,,0.00,Wunderground v.1.15,2013-09-25 08:44:00,
2013-09-25 04:49:00,44.7,42.2,29.97,WNW,302,0.0,0.0,91,0.00,,,0.00,Wunderground v.1.15,2013-09-25 08:49:00,
2013-09-25 04:54:00,44.5,42.0,29.96,WNW,302,0.0,0.0,91,0.00,,,0.00,Wunderground v.1.15,2013-09-25 08:54:00,
2013-09-25 05:00:00,44.4,41.9,29.97,WNW,302,0.0,0.0,91,0.00,,,0.00,Wunderground v.1.15,2013-09-25 09:00:00,
2013-09-25 05:05:00,44.3,42.1,29.96,WNW,302,0.0,1.0,92,0.00,,,0.00,Wunderground v.1.15,2013-09-25 09:05:00,
2013-09-25 05:10:00,44.2,42.0,29.96,WNW,302,0.0,1.0,92,0.00,,,0.00,Wunderground v.1.15,2013-09-25 09:10:00,
2013-09-25 05:14:00,44.2,42.0,29.96,WNW,302,0.0,1.0,92,0.00,,,0.00,Wunderground v.1.15,2013-09-25 09:14:00,
2013-09-25 05:19:00,44.1,41.9,29.96,WNW,302,0.0,1.0,92,0.00,,,0.00,Wunderground v.1.15,2013-09-25 09:19:00,
2013-09-25 05:24:00,44.0,41.8,29.96,WNW,302,0.0,1.0,92,0.00,,,0.00,Wunderground v.1.15,2013-09-25 09:24:00,
2013-09-25 05:34:00,43.7,41.5,29.97,WNW,302,0.0,1.0,92,0.00,,,0.00,Wunderground v.1.15,2013-09-25 09:34:00,
2013-09-25 05:39:00,43.6,41.4,29.97,WNW,302,0.0,1.0,92,0.00,,,0.00,Wunderground v.1.15,2013-09-25 09:39:00,
2013-09-25 05:44:00,43.5,41.6,29.97,WNW,302,0.0,1.0,93,0.00,,,0.00,Wunderground v.1.15,2013-09-25 09:44:00,
2013-09-25 05:49:00,43.4,41.5,29.97,WNW,302,0.0,1.0,93,0.00,,,0.00,Wunderground v.1.15,2013-09-25 09:49:00,
2013-09-25 05:54:00,43.3,41.4,29.97,WNW,302,0.0,1.0,93,0.00,,,0.00,Wunderground v.1.15,2013-09-25 09:54:00,
2013-09-25 06:00:00,43.2,41.0,29.97,WNW,302,0.0,1.0,92,0.00,,,0.00,Wunderground v.1.15,2013-09-25 10:00:00,
2013-09-25 06:05:00,43.1,41.2,29.97,WNW,302,0.0,1.0,93,0.00,,,0.00,Wunderground v.1.15,2013-09-25 10:05:00,
2013-09-25 06:10:00,43.0,41.1,29.97,WNW,302,0.0,1.0,93,0.00,,,0.00,Wunderground v.1.15,2013-09-25 10:10:00,
2013-09-25 06:19:00,42.8,40.9,29.97,WNW,302,0.0,1.0,93,0.00,,,0.00,Wunderground v.1.15,2013-09-25 10:19:00,
2013-09-25 06:24:00,42.8,40.9,29.97,WNW,302,0.0,1.0,93,0.00,,,0.00,Wunderground v.1.15,2013-09-25 10:24:00,
2013-09-25 06:29:00,42.7,40.8,29.97,WNW,302,0.0,1.0,93,0.00,,,0.00,Wunderground v.1.15,2013-09-25 10:29:00,
2013-09-25 06:35:00,42.6,40.7,29.97,WNW,302,0.0,1.0,93,0.00,,,0.00,Wunderground v.1.15,2013-09-25 10:35:00,
2013-09-25 06:40:00,42.6,40.7,29.97,WNW,302,0.0,1.0,93,0.00,,,0.00,Wunderground v.1.15,2013-09-25 10:40:00,
2013-09-25 06:45:00,42.5,40.6,29.97,WNW,302,0.0,1.0,93,0.00,,,0.00,Wunderground v.1.15,2013-09-25 10:45:00,
2013-09-25 06:49:00,42.4,40.5,29.98,WNW,302,0.0,1.0,93,0.00,,,0.00,Wunderground v.1.15,2013-09-25 10:49:00,
2013-09-25 06:54:00,42.3,40.4,29.98,WNW,302,0.0,1.0,93,0.00,,,0.00,Wunderground v.1.15,2013-09-25 10:54:00,
2013-09-25 06:59:00,42.2,40.3,29.98,WNW,302,0.0,1.0,93,0.00,,,0.00,Wunderground v.1.15,2013-09-25 10:59:00,
2013-09-25 07:04:00,42.0,40.1,29.98,WNW,302,0.0,1.0,93,0.00,,,0.00,Wunderground v.1.15,2013-09-25 11:04:00,
2013-09-25 07:10:00,41.9,40.0,29.97,WNW,302,0.0,1.0,93,0.00,,,0.00,Wunderground v.1.15,2013-09-25 11:10:00,
2013-09-25 07:15:00,41.9,40.3,29.98,WNW,302,0.0,1.0,94,0.00,,,0.00,Wunderground v.1.15,2013-09-25 11:15:00,
2013-09-25 07:20:00,42.0,40.4,29.98,WNW,302,0.0,1.0,94,0.00,,,0.00,Wunderground v.1.15,2013-09-25 11:20:00,
2013-09-25 07:24:00,42.1,40.5,29.98,WNW,302,0.0,1.0,94,0.00,,,0.00,Wunderground v.1.15,2013-09-25 11:24:00,
2013-09-25 07:29:00,42.2,40.6,29.98,WNW,302,0.0,1.0,94,0.00,,,0.00,Wunderground v.1.15,2013-09-25 11:29:00,
2013-09-25 07:34:00,42.4,40.8,29.98,WNW,302,0.0,1.0,94,0.00,,,0.00,Wunderground v.1.15,2013-09-25 11:34:00,
2013-09-25 07:39:00,42.5,41.2,29.98,WNW,302,0.0,1.0,95,0.00,,,0.00,Wunderground v.1.15,2013-09-25 11:39:00,
2013-09-25 07:44:00,42.8,41.5,29.98,WNW,302,0.0,1.0,95,0.00,,,0.00,Wunderground v.1.15,2013-09-25 11:44:00,
2013-09-25 07:50:00,43.0,41.7,29.98,WNW,302,0.0,1.0,95,0.00,,,0.00,Wunderground v.1.15,2013-09-25 11:50:00,
2013-09-25 07:55:00,43.2,41.9,29.98,WNW,302,0.0,1.0,95,0.00,,,0.00,Wunderground v.1.15,2013-09-25 11:55:00,
2013-09-25 08:00:00,43.7,42.6,29.99,WNW,302,0.0,1.0,96,0.00,,,0.00,Wunderground v.1.15,2013-09-25 12:00:00,
2013-09-25 08:04:00,44.1,43.0,29.99,WNW,302,0.0,1.0,96,0.00,,,0.00,Wunderground v.1.15,2013-09-25 12:04:00,
2013-09-25 08:09:00,44.8,43.7,29.99,WNW,302,0.0,1.0,96,0.00,,,0.00,Wunderground v.1.15,2013-09-25 12:09:00,
2013-09-25 08:14:00,45.3,44.2,29.99,WNW,302,0.0,1.0,96,0.00,,,0.00,Wunderground v.1.15,2013-09-25 12:14:00,
2013-09-25 08:19:00,45.6,44.5,29.99,WNW,302,0.0,1.0,96,0.00,,,0.00,Wunderground v.1.15,2013-09-25 12:19:00,
2013-09-25 08:25:00,46.0,44.9,29.99,WNW,302,0.0,1.0,96,0.00,,,0.00,Wunderground v.1.15,2013-09-25 12:25:00,
2013-09-25 08:30:00,46.3,45.2,29.99,WNW,302,0.0,1.0,96,0.00,,,0.00,Wunderground v.1.15,2013-09-25 12:30:00,
2013-09-25 08:35:00,46.6,45.5,29.99,WNW,302,0.0,1.0,96,0.00,,,0.00,Wunderground v.1.15,2013-09-25 12:35:00,
2013-09-25 08:39:00,46.9,45.8,29.99,WNW,302,0.0,1.0,96,0.00,,,0.00,Wunderground v.1.15,2013-09-25 12:39:00,
2013-09-25 08:44:00,47.3,46.2,29.99,WNW,302,0.0,1.0,96,0.00,,,0.00,Wunderground v.1.15,2013-09-25 12:44:00,
2013-09-25 08:49:00,47.7,46.6,29.99,WNW,302,0.0,1.0,96,0.00,,,0.00,Wunderground v.1.15,2013-09-25 12:49:00,
2013-09-25 08:54:00,48.1,47.0,29.99,WNW,302,0.0,1.0,96,0.00,,,0.00,Wunderground v.1.15,2013-09-25 12:54:00,
2013-09-25 08:59:00,48.7,47.6,29.99,WNW,302,0.0,1.0,96,0.00,,,0.00,Wunderground v.1.15,2013-09-25 12:59:00,
2013-09-25 09:05:00,49.1,48.0,29.99,WNW,302,0.0,1.0,96,0.00,,,0.00,Wunderground v.1.15,2013-09-25 13:05:00,
2013-09-25 09:10:00,49.6,48.5,29.99,WNW,302,0.0,1.0,96,0.00,,,0.00,Wunderground v.1.15,2013-09-25 13:10:00,
2013-09-25 09:15:00,50.5,49.4,29.99,WNW,302,0.0,1.0,96,0.00,,,0.00,Wunderground v.1.15,2013-09-25 13:15:00,
2013-09-25 09:19:00,50.9,49.5,29.99,WNW,302,0.0,1.0,95,0.00,,,0.00,Wunderground v.1.15,2013-09-25 13:19:00,
2013-09-25 09:24:00,51.4,49.4,29.99,WNW,302,0.0,1.0,93,0.00,,,0.00,Wunderground v.1.15,2013-09-25 13:24:00,
2013-09-25 09:29:00,52.1,49.6,29.99,NW,305,0.0,1.0,91,0.00,,,0.00,Wunderground v.1.15,2013-09-25 13:29:00,
2013-09-25 09:34:00,53.0,49.8,29.99,NW,305,0.0,1.0,89,0.00,,,0.00,Wunderground v.1.15,2013-09-25 13:34:00,
2013-09-25 09:40:00,53.6,49.8,29.99,NW,305,0.0,1.0,87,0.00,,,0.00,Wunderground v.1.15,2013-09-25 13:40:00,
2013-09-25 09:45:00,54.1,50.3,29.99,NW,308,0.0,1.0,87,0.00,,,0.00,Wunderground v.1.15,2013-09-25 13:45:00,
2013-09-25 09:50:00,54.6,50.2,29.99,NW,309,0.0,1.0,85,0.00,,,0.00,Wunderground v.1.15,2013-09-25 13:50:00,
2013-09-25 09:54:00,55.0,49.9,29.98,NW,309,0.0,1.0,83,0.00,,,0.00,Wunderground v.1.15,2013-09-25 13:54:00,
2013-09-25 09:59:00,55.5,50.4,29.98,NW,309,0.0,1.0,83,0.00,,,0.00,Wunderground v.1.15,2013-09-25 13:59:00,
2013-09-25 10:04:00,56.8,51.0,29.98,NW,318,0.0,1.0,81,0.00,,,0.00,Wunderground v.1.15,2013-09-25 14:04:00,
2013-09-25 10:09:00,57.6,50.4,29.98,NW,318,0.0,1.0,77,0.00,,,0.00,Wunderground v.1.15,2013-09-25 14:09:00,
2013-09-25 10:14:00,58.2,51.4,29.98,NW,318,0.0,1.0,78,0.00,,,0.00,Wunderground v.1.15,2013-09-25 14:14:00,
2013-09-25 10:20:00,58.7,50.4,29.98,NW,317,0.0,1.0,74,0.00,,,0.00,Wunderground v.1.15,2013-09-25 14:20:00,
2013-09-25 10:25:00,59.0,50.4,29.98,NNW,333,0.0,1.0,73,0.00,,,0.00,Wunderground v.1.15,2013-09-25 14:25:00,
2013-09-25 10:30:00,59.4,50.4,29.98,NNW,333,0.0,1.0,72,0.00,,,0.00,Wunderground v.1.15,2013-09-25 14:30:00,
2013-09-25 10:35:00,59.8,49.2,29.98,NNW,339,0.0,1.0,68,0.00,,,0.00,Wunderground v.1.15,2013-09-25 14:35:00,
2013-09-25 10:39:00,60.5,50.7,29.97,NNW,346,0.0,1.0,70,0.00,,,0.00,Wunderground v.1.15,2013-09-25 14:39:00,
2013-09-25 10:44:00,61.3,50.6,29.97,WNW,283,0.0,1.0,68,0.00,,,0.00,Wunderground v.1.15,2013-09-25 14:44:00,
2013-09-25 10:49:00,62.2,50.7,29.97,NW,308,0.0,1.0,66,0.00,,,0.00,Wunderground v.1.15,2013-09-25 14:49:00,
2013-09-25 10:54:00,63.0,51.0,29.97,NW,309,0.0,1.0,65,0.00,,,0.00,Wunderground v.1.15,2013-09-25 14:54:00,
2013-09-25 11:00:00,63.5,50.2,29.97,NW,319,0.0,1.0,62,0.00,,,0.00,Wunderground v.1.15,2013-09-25 15:00:00,
2013-09-25 11:05:00,64.1,50.4,29.97,NNW,328,0.0,1.0,61,0.00,,,0.00,Wunderground v.1.15,2013-09-25 15:05:00,
2013-09-25 11:10:00,64.7,50.9,29.97,North,355,1.0,1.0,61,0.00,,,0.00,Wunderground v.1.15,2013-09-25 15:10:00,
2013-09-25 11:15:00,65.0,50.3,29.97,NNW,333,1.0,1.0,59,0.00,,,0.00,Wunderground v.1.15,2013-09-25 15:15:00,
2013-09-25 11:19:00,65.3,49.7,29.97,North,349,0.0,1.0,57,0.00,,,0.00,Wunderground v.1.15,2013-09-25 15:19:00,
2013-09-25 11:24:00,65.6,50.4,29.97,NW,306,0.0,1.0,58,0.00,,,0.00,Wunderground v.1.15,2013-09-25 15:24:00,
2013-09-25 11:29:00,65.9,47.8,29.97,NW,306,1.0,2.0,52,0.00,,,0.00,Wunderground v.1.15,2013-09-25 15:29:00,
2013-09-25 11:35:00,66.1,50.4,29.97,NW,323,1.0,2.0,57,0.00,,,0.00,Wunderground v.1.15,2013-09-25 15:35:00,
2013-09-25 11:40:00,66.3,49.6,29.97,North,350,0.0,3.0,55,0.00,,,0.00,Wunderground v.1.15,2013-09-25 15:40:00,
2013-09-25 11:45:00,66.4,47.7,29.96,NW,312,1.0,3.0,51,0.00,,,0.00,Wunderground v.1.15,2013-09-25 15:45:00,
2013-09-25 11:50:00,66.6,48.4,29.96,NNW,338,0.0,1.0,52,0.00,,,0.00,Wunderground v.1.15,2013-09-25 15:50:00,
2013-09-25 11:54:00,66.7,49.5,29.96,NNW,331,0.0,1.0,54,0.00,,,0.00,Wunderground v.1.15,2013-09-25 15:54:00,
2013-09-25 11:59:00,66.9,47.1,29.96,East,81,0.0,3.0,49,0.00,,,0.00,Wunderground v.1.15,2013-09-25 15:59:00,
2013-09-25 12:04:00,67.0,49.3,29.96,NW,305,1.0,3.0,53,0.00,,,0.00,Wunderground v.1.15,2013-09-25 16:04:00,
2013-09-25 12:09:00,67.4,51.2,29.96,North,355,0.0,1.0,56,0.00,,,0.00,Wunderground v.1.15,2013-09-25 16:09:00,
2013-09-25 12:15:00,67.7,48.9,29.96,NNW,330,0.0,1.0,51,0.00,,,0.00,Wunderground v.1.15,2013-09-25 16:15:00,
2013-09-25 12:20:00,68.0,48.7,29.96,NNW,344,0.0,2.0,50,0.00,,,0.00,Wunderground v.1.15,2013-09-25 16:20:00,
2013-09-25 12:25:00,68.2,49.4,29.96,NNW,331,0.0,2.0,51,0.00,,,0.00,Wunderground v.1.15,2013-09-25 16:25:00,
2013-09-25 12:30:00,68.4,48.5,29.96,WNW,284,1.0,3.0,49,0.00,,,0.00,Wunderground v.1.15,2013-09-25 16:30:00,
2013-09-25 12:39:00,68.6,49.7,29.96,NW,325,1.0,3.0,51,0.00,,,0.00,Wunderground v.1.15,2013-09-25 16:39:00,
2013-09-25 12:44:00,68.8,50.5,29.96,NNW,328,0.0,3.0,52,0.00,,,0.00,Wunderground v.1.15,2013-09-25 16:44:00,
2013-09-25 12:50:00,69.1,50.7,29.95,West,264,0.0,2.0,52,0.00,,,0.00,Wunderground v.1.15,2013-09-25 16:50:00,
2013-09-25 12:55:00,69.4,51.5,29.95,WNW,300,0.0,2.0,53,0.00,,,0.00,Wunderground v.1.15,2013-09-25 16:55:00,
2013-09-25 13:00:00,69.8,51.4,29.95,ENE,63,0.0,2.0,52,0.00,,,0.00,Wunderground v.1.15,2013-09-25 17:00:00,
2013-09-25 13:05:00,70.2,50.1,29.95,WNW,285,0.0,2.0,49,0.00,,,0.00,Wunderground v.1.15,2013-09-25 17:05:00,
2013-09-25 13:09:00,70.4,51.4,29.95,WNW,290,1.0,2.0,51,0.00,,,0.00,Wunderground v.1.15,2013-09-25 17:09:00,
2013-09-25 13:14:00,70.6,52.1,29.95,NW,316,1.0,2.0,52,0.00,,,0.00,Wunderground v.1.15,2013-09-25 17:14:00,
2013-09-25 13:19:00,70.6,49.4,29.95,WNW,296,1.0,1.0,47,0.00,,,0.00,Wunderground v.1.15,2013-09-25 17:19:00,
2013-09-25 13:25:00,70.6,52.6,29.95,NW,307,0.0,1.0,53,0.00,,,0.00,Wunderground v.1.15,2013-09-25 17:25:00,
2013-09-25 13:29:00,71.0,50.3,29.94,NE,53,0.0,1.0,48,0.00,,,0.00,Wunderground v.1.15,2013-09-25 17:29:00,
2013-09-25 13:35:00,71.0,51.4,29.94,WNW,297,0.0,2.0,50,0.00,,,0.00,Wunderground v.1.15,2013-09-25 17:35:00,
2013-09-25 13:40:00,71.2,52.1,29.94,NW,319,0.0,1.0,51,0.00,,,0.00,Wunderground v.1.15,2013-09-25 17:40:00,
2013-09-25 13:44:00,71.5,52.9,29.94,North,351,0.0,1.0,52,0.00,,,0.00,Wunderground v.1.15,2013-09-25 17:44:00,
2013-09-25 13:49:00,71.7,54.2,29.94,North,9,0.0,1.0,54,0.00,,,0.00,Wunderground v.1.15,2013-09-25 17:49:00,
2013-09-25 13:54:00,72.0,52.9,29.94,NE,43,0.0,1.0,51,0.00,,,0.00,Wunderground v.1.15,2013-09-25 17:54:00,
2013-09-25 13:59:00,72.2,52.5,29.93,WNW,296,0.0,1.0,50,0.00,,,0.00,Wunderground v.1.15,2013-09-25 17:59:00,
2013-09-25 14:04:00,72.5,52.8,29.93,NNW,329,0.0,1.0,50,0.00,,,0.00,Wunderground v.1.15,2013-09-25 18:04:00,
2013-09-25 14:10:00,72.6,52.3,29.93,NW,324,0.0,1.0,49,0.00,,,0.00,Wunderground v.1.15,2013-09-25 18:10:00,
2013-09-25 14:15:00,72.3,50.4,29.93,WNW,299,0.0,3.0,46,0.00,,,0.00,Wunderground v.1.15,2013-09-25 18:15:00,
2013-09-25 14:20:00,72.5,52.2,29.93,NW,311,0.0,1.0,49,0.00,,,0.00,Wunderground v.1.15,2013-09-25 18:20:00,
2013-09-25 14:29:00,73.2,53.4,29.92,NW,306,1.0,1.0,50,0.00,,,0.00,Wunderground v.1.15,2013-09-25 18:29:00,
2013-09-25 14:34:00,73.4,53.6,29.92,NNW,331,0.0,1.0,50,0.00,,,0.00,Wunderground v.1.15,2013-09-25 18:34:00,
2013-09-25 14:39:00,73.7,53.3,29.92,NNW,347,0.0,1.0,49,0.00,,,0.00,Wunderground v.1.15,2013-09-25 18:39:00,
2013-09-25 14:44:00,73.9,53.5,29.92,NNW,347,0.0,1.0,49,0.00,,,0.00,Wunderground v.1.15,2013-09-25 18:44:00,
2013-09-25 14:50:00,73.9,54.1,29.92,NNE,32,0.0,1.0,50,0.00,,,0.00,Wunderground v.1.15,2013-09-25 18:50:00,
2013-09-25 14:55:00,74.0,54.7,29.92,WNW,286,0.0,6.0,51,0.00,,,0.00,Wunderground v.1.15,2013-09-25 18:55:00,
2013-09-25 15:00:00,74.1,52.6,29.92,NW,311,1.0,1.0,47,0.00,,,0.00,Wunderground v.1.15,2013-09-25 19:00:00,
2013-09-25 15:04:00,74.0,52.5,29.92,WNW,291,2.0,2.0,47,0.00,,,0.00,Wunderground v.1.15,2013-09-25 19:04:00,
2013-09-25 15:09:00,74.0,51.9,29.92,NNE,32,1.0,1.0,46,0.00,,,0.00,Wunderground v.1.15,2013-09-25 19:09:00,
2013-09-25 15:14:00,73.8,52.9,29.92,NNE,13,0.0,1.0,48,0.00,,,0.00,Wunderground v.1.15,2013-09-25 19:14:00,
2013-09-25 15:19:00,73.8,52.9,29.91,NE,51,0.0,1.0,48,0.00,,,0.00,Wunderground v.1.15,2013-09-25 19:19:00,
2013-09-25 15:25:00,73.6,53.3,29.91,NE,51,0.0,1.0,49,0.00,,,0.00,Wunderground v.1.15,2013-09-25 19:25:00,
2013-09-25 15:30:00,73.6,53.8,29.91,NE,51,0.0,1.0,50,0.00,,,0.00,Wunderground v.1.15,2013-09-25 19:30:00,
2013-09-25 15:35:00,73.6,54.4,29.92,NE,51,0.0,1.0,51,0.00,,,0.00,Wunderground v.1.15,2013-09-25 19:35:00,
2013-09-25 15:44:00,73.5,54.8,29.91,ENE,57,0.0,1.0,52,0.00,,,0.00,Wunderground v.1.15,2013-09-25 19:44:00,
2013-09-25 15:49:00,73.2,53.4,29.91,NNE,21,0.0,1.0,50,0.00,,,0.00,Wunderground v.1.15,2013-09-25 19:49:00,
2013-09-25 15:54:00,72.7,51.3,29.91,WNW,282,0.0,1.0,47,0.00,,,0.00,Wunderground v.1.15,2013-09-25 19:54:00,
2013-09-25 15:59:00,72.1,52.4,29.91,NNE,22,0.0,1.0,50,0.00,,,0.00,Wunderground v.1.15,2013-09-25 19:59:00,
2013-09-25 16:05:00,71.5,54.5,29.91,NNE,24,0.0,1.0,55,0.00,,,0.00,Wunderground v.1.15,2013-09-25 20:05:00,
2013-09-25 16:10:00,71.1,54.6,29.91,NNE,24,0.0,1.0,56,0.00,,,0.00,Wunderground v.1.15,2013-09-25 20:10:00,
2013-09-25 16:15:00,70.6,54.1,29.91,NNE,24,0.0,1.0,56,0.00,,,0.00,Wunderground v.1.15,2013-09-25 20:15:00,
2013-09-25 16:19:00,70.3,55.3,29.91,NE,37,0.0,1.0,59,0.00,,,0.00,Wunderground v.1.15,2013-09-25 20:19:00,
2013-09-25 16:24:00,69.8,54.4,29.91,NE,37,0.0,1.0,58,0.00,,,0.00,Wunderground v.1.15,2013-09-25 20:24:00,
2013-09-25 16:29:00,69.4,54.0,29.91,ENE,57,0.0,1.0,58,0.00,,,0.00,Wunderground v.1.15,2013-09-25 20:29:00,
2013-09-25 16:34:00,68.9,54.0,29.91,ENE,57,0.0,1.0,59,0.00,,,0.00,Wunderground v.1.15,2013-09-25 20:34:00,
2013-09-25 16:39:00,68.6,54.2,29.91,ENE,57,0.0,1.0,60,0.00,,,0.00,Wunderground v.1.15,2013-09-25 20:39:00,
2013-09-25 16:45:00,68.6,54.6,29.91,ENE,57,0.0,1.0,61,0.00,,,0.00,Wunderground v.1.15,2013-09-25 20:45:00,
2013-09-25 16:50:00,68.4,54.0,29.91,ENE,57,0.0,1.0,60,0.00,,,0.00,Wunderground v.1.15,2013-09-25 20:50:00,
2013-09-25 16:54:00,68.2,54.2,29.91,ENE,57,0.0,1.0,61,0.00,,,0.00,Wunderground v.1.15,2013-09-25 20:54:00,
2013-09-25 17:00:00,67.9,54.8,29.91,ENE,62,0.0,1.0,63,0.00,,,0.00,Wunderground v.1.15,2013-09-25 21:00:00,
2013-09-25 17:04:00,67.5,54.0,29.91,ENE,62,0.0,1.0,62,0.00,,,0.00,Wunderground v.1.15,2013-09-25 21:04:00,
2013-09-25 17:10:00,67.1,53.6,29.91,NE,34,0.0,1.0,62,0.00,,,0.00,Wunderground v.1.15,2013-09-25 21:10:00,
2013-09-25 17:15:00,66.8,53.4,29.91,ENE,74,0.0,1.0,62,0.00,,,0.00,Wunderground v.1.15,2013-09-25 21:15:00,
2013-09-25 17:20:00,66.5,53.5,29.91,ENE,71,0.0,1.0,63,0.00,,,0.00,Wunderground v.1.15,2013-09-25 21:20:00,
2013-09-25 17:24:00,66.2,53.7,29.91,ENE,71,0.0,1.0,64,0.00,,,0.00,Wunderground v.1.15,2013-09-25 21:24:00,
2013-09-25 17:29:00,65.8,54.1,29.91,ENE,71,0.0,1.0,66,0.00,,,0.00,Wunderground v.1.15,2013-09-25 21:29:00,
2013-09-25 17:34:00,65.4,53.7,29.91,ENE,71,0.0,1.0,66,0.00,,,0.00,Wunderground v.1.15,2013-09-25 21:34:00,
2013-09-25 17:39:00,65.0,53.8,29.91,ENE,71,0.0,1.0,67,0.00,,,0.00,Wunderground v.1.15,2013-09-25 21:39:00,
2013-09-25 17:44:00,64.6,53.4,29.91,ENE,71,0.0,1.0,67,0.00,,,0.00,Wunderground v.1.15,2013-09-25 21:44:00,
2013-09-25 17:50:00,64.2,53.4,29.91,ENE,71,0.0,1.0,68,0.00,,,0.00,Wunderground v.1.15,2013-09-25 21:50:00,
2013-09-25 17:55:00,63.8,53.4,29.91,ENE,71,0.0,1.0,69,0.00,,,0.00,Wunderground v.1.15,2013-09-25 21:55:00,
2013-09-25 18:00:00,63.4,53.0,29.91,ENE,71,0.0,1.0,69,0.00,,,0.00,Wunderground v.1.15,2013-09-25 22:00:00,
2013-09-25 18:04:00,63.1,53.5,29.91,ENE,71,0.0,1.0,71,0.00,,,0.00,Wunderground v.1.15,2013-09-25 22:04:00,
2013-09-25 18:09:00,62.7,53.2,29.91,ENE,71,0.0,1.0,71,0.00,,,0.00,Wunderground v.1.15,2013-09-25 22:09:00,
2013-09-25 18:14:00,62.3,53.2,29.92,ENE,71,0.0,1.0,72,0.00,,,0.00,Wunderground v.1.15,2013-09-25 22:14:00,
2013-09-25 18:19:00,61.8,53.1,29.92,ENE,71,0.0,1.0,73,0.00,,,0.00,Wunderground v.1.15,2013-09-25 22:19:00,
2013-09-25 18:25:00,61.4,52.7,29.92,ENE,71,0.0,1.0,73,0.00,,,0.00,Wunderground v.1.15,2013-09-25 22:25:00,
2013-09-25 18:30:00,61.1,52.4,29.92,ENE,71,0.0,1.0,73,0.00,,,0.00,Wunderground v.1.15,2013-09-25 22:30:00,
2013-09-25 18:35:00,60.8,52.1,29.92,ENE,71,0.0,1.0,73,0.00,,,0.00,Wunderground v.1.15,2013-09-25 22:35:00,
2013-09-25 18:39:00,60.5,53.3,29.93,ENE,71,0.0,1.0,77,0.00,,,0.00,Wunderground v.1.15,2013-09-25 22:39:00,
2013-09-25 18:44:00,60.2,53.0,29.93,ENE,71,0.0,1.0,77,0.00,,,0.00,Wunderground v.1.15,2013-09-25 22:44:00,
2013-09-25 18:49:00,59.8,52.9,29.93,ENE,71,0.0,1.0,78,0.00,,,0.00,Wunderground v.1.15,2013-09-25 22:49:00,
2013-09-25 18:54:00,59.4,52.5,29.93,ENE,71,0.0,1.0,78,0.00,,,0.00,Wunderground v.1.15,2013-09-25 22:54:00,
2013-09-25 18:59:00,59.0,52.1,29.93,ENE,71,0.0,1.0,78,0.00,,,0.00,Wunderground v.1.15,2013-09-25 22:59:00,
2013-09-25 19:05:00,58.7,52.2,29.93,ENE,71,0.0,1.0,79,0.00,,,0.00,Wunderground v.1.15,2013-09-25 23:05:00,
2013-09-25 19:10:00,58.4,52.3,29.93,ENE,71,0.0,1.0,80,0.00,,,0.00,Wunderground v.1.15,2013-09-25 23:10:00,
2013-09-25 19:14:00,58.0,51.9,29.93,ENE,71,0.0,1.0,80,0.00,,,0.00,Wunderground v.1.15,2013-09-25 23:14:00,
2013-09-25 19:19:00,57.6,51.8,29.93,ENE,71,0.0,1.0,81,0.00,,,0.00,Wunderground v.1.15,2013-09-25 23:19:00,
2013-09-25 19:24:00,57.1,51.7,29.93,ENE,71,0.0,1.0,82,0.00,,,0.00,Wunderground v.1.15,2013-09-25 23:24:00,
2013-09-25 19:29:00,56.6,51.5,29.94,ENE,71,0.0,1.0,83,0.00,,,0.00,Wunderground v.1.15,2013-09-25 23:29:00,
2013-09-25 19:35:00,56.2,51.1,29.93,ENE,71,0.0,1.0,83,0.00,,,0.00,Wunderground v.1.15,2013-09-25 23:35:00,
2013-09-25 19:40:00,55.9,51.1,29.93,ENE,71,0.0,1.0,84,0.00,,,0.00,Wunderground v.1.15,2013-09-25 23:40:00,
2013-09-25 19:45:00,55.6,50.8,29.94,ENE,71,0.0,1.0,84,0.00,,,0.00,Wunderground v.1.15,2013-09-25 23:45:00,
2013-09-25 19:49:00,55.3,50.9,29.94,ENE,71,0.0,1.0,85,0.00,,,0.00,Wunderground v.1.15,2013-09-25 23:49:00,
2013-09-25 19:54:00,55.1,50.7,29.94,ENE,71,0.0,1.0,85,0.00,,,0.00,Wunderground v.1.15,2013-09-25 23:54:00,
2013-09-25 19:59:00,54.9,50.5,29.94,ENE,71,0.0,1.0,85,0.00,,,0.00,Wunderground v.1.15,2013-09-25 23:59:00,
2013-09-25 20:04:00,54.7,50.3,29.94,ENE,71,0.0,1.0,85,0.00,,,0.00,Wunderground v.1.15,2013-09-26 00:04:00,
2013-09-25 20:10:00,54.5,50.4,29.94,ENE,71,0.0,1.0,86,0.00,,,0.00,Wunderground v.1.15,2013-09-26 00:10:00,
2013-09-25 20:15:00,54.3,50.2,29.94,ENE,71,0.0,1.0,86,0.00,,,0.00,Wunderground v.1.15,2013-09-26 00:15:00,
2013-09-25 20:19:00,54.1,50.3,29.95,ENE,71,0.0,1.0,87,0.00,,,0.00,Wunderground v.1.15,2013-09-26 00:19:00,
2013-09-25 20:25:00,53.9,50.1,29.95,ENE,71,0.0,1.0,87,0.00,,,0.00,Wunderground v.1.15,2013-09-26 00:25:00,
2013-09-25 20:29:00,53.8,50.3,29.95,ENE,71,0.0,1.0,88,0.00,,,0.00,Wunderground v.1.15,2013-09-26 00:29:00,
2013-09-25 20:35:00,53.6,50.1,29.95,ENE,71,0.0,1.0,88,0.00,,,0.00,Wunderground v.1.15,2013-09-26 00:35:00,
2013-09-25 20:40:00,53.5,50.0,29.95,ENE,71,0.0,1.0,88,0.00,,,0.00,Wunderground v.1.15,2013-09-26 00:40:00,
2013-09-25 20:45:00,53.3,50.1,29.95,ENE,71,0.0,1.0,89,0.00,,,0.00,Wunderground v.1.15,2013-09-26 00:45:00,
2013-09-25 20:49:00,53.1,49.9,29.95,ENE,71,0.0,1.0,89,0.00,,,0.00,Wunderground v.1.15,2013-09-26 00:49:00,
2013-09-25 20:54:00,52.9,49.7,29.96,ENE,71,0.0,1.0,89,0.00,,,0.00,Wunderground v.1.15,2013-09-26 00:54:00,
2013-09-25 20:59:00,52.8,49.6,29.96,ENE,71,0.0,1.0,89,0.00,,,0.00,Wunderground v.1.15,2013-09-26 00:59:00,
2013-09-25 21:04:00,52.6,49.4,29.96,ENE,71,0.0,1.0,89,0.00,,,0.00,Wunderground v.1.15,2013-09-26 01:04:00,
2013-09-25 21:10:00,52.4,49.3,29.96,ENE,71,0.0,1.0,89,0.00,,,0.00,Wunderground v.1.15,2013-09-26 01:10:00,
2013-09-25 21:15:00,52.2,49.1,29.97,ENE,71,0.0,1.0,89,0.00,,,0.00,Wunderground v.1.15,2013-09-26 01:15:00,
2013-09-25 21:20:00,52.0,48.9,29.97,ENE,71,0.0,1.0,89,0.00,,,0.00,Wunderground v.1.15,2013-09-26 01:20:00,
2013-09-25 21:24:00,51.9,49.1,29.97,ENE,71,0.0,1.0,90,0.00,,,0.00,Wunderground v.1.15,2013-09-26 01:24:00,
2013-09-25 21:29:00,51.7,48.9,29.97,ENE,71,0.0,1.0,90,0.00,,,0.00,Wunderground v.1.15,2013-09-26 01:29:00,
2013-09-25 21:34:00,51.6,48.8,29.97,ENE,71,0.0,1.0,90,0.00,,,0.00,Wunderground v.1.15,2013-09-26 01:34:00,
2013-09-25 21:39:00,51.5,49.0,29.97,ENE,71,0.0,1.0,91,0.00,,,0.00,Wunderground v.1.15,2013-09-26 01:39:00,
2013-09-25 21:44:00,51.4,48.9,29.98,ENE,71,0.0,1.0,91,0.00,,,0.00,Wunderground v.1.15,2013-09-26 01:44:00,
2013-09-25 21:50:00,51.4,48.9,29.98,ENE,71,0.0,1.0,91,0.00,,,0.00,Wunderground v.1.15,2013-09-26 01:50:00,
2013-09-25 21:55:00,51.3,48.8,29.98,ENE,71,0.0,1.0,91,0.00,,,0.00,Wunderground v.1.15,2013-09-26 01:55:00,
2013-09-25 22:00:00,51.2,48.7,29.98,ENE,71,0.0,1.0,91,0.00,,,0.00,Wunderground v.1.15,2013-09-26 02:00:00,
2013-09-25 22:09:00,51.1,48.6,29.98,ENE,71,0.0,1.0,91,0.00,,,0.00,Wunderground v.1.15,2013-09-26 02:09:00,
2013-09-25 22:19:00,51.2,49.0,29.98,ENE,71,0.0,1.0,92,0.00,,,0.00,Wunderground v.1.15,2013-09-26 02:19:00,
2013-09-25 22:24:00,51.3,49.1,29.98,ENE,71,0.0,1.0,92,0.00,,,0.00,Wunderground v.1.15,2013-09-26 02:24:00,
2013-09-25 22:29:00,51.4,49.2,29.98,ENE,71,0.0,1.0,92,0.00,,,0.00,Wunderground v.1.15,2013-09-26 02:29:00,
2013-09-25 22:34:00,51.5,49.3,29.99,ENE,71,0.0,1.0,92,0.00,,,0.00,Wunderground v.1.15,2013-09-26 02:34:00,
2013-09-25 22:40:00,51.6,49.4,29.99,ENE,71,0.0,1.0,92,0.00,,,0.00,Wunderground v.1.15,2013-09-26 02:40:00,
2013-09-25 22:45:00,51.7,49.5,29.99,ENE,71,0.0,1.0,92,0.00,,,0.00,Wunderground v.1.15,2013-09-26 02:45:00,
2013-09-25 22:50:00,51.8,49.3,29.99,ENE,71,0.0,1.0,91,0.00,,,0.00,Wunderground v.1.15,2013-09-26 02:50:00,
2013-09-25 22:55:00,51.9,49.4,29.98,ENE,71,0.0,1.0,91,0.00,,,0.00,Wunderground v.1.15,2013-09-26 02:55:00,
2013-09-25 23:00:00,52.0,49.5,29.99,ENE,71,0.0,1.0,91,0.00,,,0.00,Wunderground v.1.15,2013-09-26 03:00:00,
2013-09-25 23:04:00,52.0,49.2,29.99,ENE,71,0.0,1.0,90,0.00,,,0.00,Wunderground v.1.15,2013-09-26 03:04:00,
2013-09-25 23:09:00,51.9,49.1,29.99,ENE,71,0.0,1.0,90,0.00,,,0.00,Wunderground v.1.15,2013-09-26 03:09:00,
2013-09-25 23:14:00,51.8,49.0,29.99,ENE,71,0.0,1.0,90,0.00,,,0.00,Wunderground v.1.15,2013-09-26 03:14:00,
2013-09-25 23:20:00,51.7,48.9,29.99,ENE,71,0.0,1.0,90,0.00,,,0.00,Wunderground v.1.15,2013-09-26 03:20:00,
2013-09-25 23:25:00,51.5,48.7,29.99,ENE,71,0.0,1.0,90,0.00,,,0.00,Wunderground v.1.15,2013-09-26 03:25:00,
2013-09-25 23:30:00,51.3,48.5,29.99,ENE,71,0.0,1.0,90,0.00,,,0.00,Wunderground v.1.15,2013-09-26 03:30:00,
2013-09-25 23:35:00,51.2,48.7,29.99,ENE,71,0.0,1.0,91,0.00,,,0.00,Wunderground v.1.15,2013-09-26 03:35:00,
2013-09-25 23:39:00,51.0,48.5,29.99,ENE,71,0.0,1.0,91,0.00,,,0.00,Wunderground v.1.15,2013-09-26 03:39:00,
2013-09-25 23:44:00,50.9,48.4,29.99,ENE,71,0.0,1.0,91,0.00,,,0.00,Wunderground v.1.15,2013-09-26 03:44:00,
2013-09-25 23:49:00,50.8,48.6,29.99,ENE,71,0.0,1.0,92,0.00,,,0.00,Wunderground v.1.15,2013-09-26 03:49:00,
2013-09-25 23:54:00,50.8,48.6,29.99,ENE,71,0.0,1.0,92,0.00,,,0.00,Wunderground v.1.15,2013-09-26 03:54:00,
2013-09-25 23:59:00,51.0,49.0,29.99,ENE,67,0.0,1.0,93,0.00,,,0.00,Wunderground v.1.15,2013-09-26 03:59:00,